DW6794 Weather Reports


Display with metric or nautical units.
time (UTC)temp
F
wind
direction
speed
MPH
gust
MPH
rain 1hr
in
rain 24hr
in
rain mn
in
humidity
%
barometer
mb
20161206193530 50 5 0.0 3.0 0.00 0.56 0.49 88 1002.3
20161206192530 50 5 1.0 3.0 0.00 0.56 0.49 88 1002.0
20161206190530 49 39 2.0 3.0 0.01 0.56 0.49 88 1001.5
20161206185530 48 39 1.0 3.0 0.02 0.56 0.49 87 1001.6
20161206184531 48 37 2.0 3.0 0.03 0.56 0.49 87 1001.8
20161206180530 48 34 3.0 5.0 0.06 0.55 0.48 87 1002.4
20161206170530 49 78 6.0 12.0 0.05 0.49 0.42 88 1002.2
20161206164531 49 100 4.0 6.0 0.07 0.48 0.41 87 1003.3
20161206163531 49 97 3.0 5.0 0.10 0.47 0.40 87 1003.7
20161206162530 49 92 3.0 3.0 0.14 0.46 0.39 87 1003.9
20161206160530 49 346 0.0 0.0 0.13 0.44 0.37 85 1004.0
20161206155530 49 346 1.0 3.0 0.12 0.43 0.36 85 1004.5
20161206154531 50 346 0.0 5.0 0.10 0.41 0.34 85 1004.2
20161206153531 50 312 3.0 9.0 0.06 0.37 0.30 85 1004.2
20161206152530 51 306 3.0 12.0 0.01 0.32 0.25 84 1004.0
20161206151531 51 355 3.0 8.0 0.00 0.31 0.24 84 1002.4
20161206140531 49 50 4.0 8.0 0.00 0.32 0.24 87 1002.7
20161206135532 49 57 3.0 10.0 0.00 0.32 0.24 87 1002.5
20161206134531 48 21 5.0 12.0 0.00 0.32 0.24 87 1003.3
20161206132531 48 3 4.0 8.0 0.00 0.32 0.24 87 1003.0
20161206130531 48 37 3.0 9.0 0.00 0.32 0.24 87 1002.7
20161206125531 48 30 4.0 8.0 0.01 0.32 0.24 86 1002.6
20161206115531 48 42 2.0 6.0 0.02 0.31 0.23 87 1004.4
20161206112531 48 80 0.0 0.0 0.03 0.31 0.23 87 1004.6
20161206111533 48 80 0.0 0.0 0.03 0.30 0.22 87 1005.1
20161206110531 48 80 0.0 0.0 0.05 0.30 0.22 87 1005.2
20161206105532 48 80 0.0 0.0 0.08 0.29 0.21 87 1005.6
20161206103532 48 80 0.0 0.0 0.11 0.28 0.20 87 1005.6
20161206100532 49 80 0.0 2.0 0.14 0.25 0.17 87 1005.8
20161206095531 49 80 2.0 5.0 0.11 0.21 0.13 87 1006.4
20161206093532 49 72 5.0 7.0 0.07 0.17 0.09 87 1006.4
20161206092532 49 16 0.0 6.0 0.04 0.13 0.05 86 1007.2
20161206090532 50 24 4.0 6.0 0.02 0.12 0.03 86 1006.2
20161206075532 51 86 0.0 6.0 0.01 0.10 0.01 86 1006.8
20161206073533 51 85 0.0 0.0 0.01 0.11 0.01 87 1006.9
20161206071532 51 85 0.0 0.0 0.00 0.10 0.00 87 1006.9
20161206064533 52 85 0.0 0.0 0.00 0.11 0.00 87 1006.7
20161206060533 51 85 0.0 0.0 0.00 0.11 0.00 87 1007.4
20161206050532 51 20 0.0 0.0 0.00 0.11 0.00 87 1007.2
20161206043533 50 20 0.0 0.0 0.00 0.11 0.11 87 1008.5
20161206035532 48 55 0.0 0.0 0.02 0.11 0.11 87 1008.0
20161206034533 48 77 0.0 0.0 0.02 0.11 0.11 87 1008.0
20161206033532 48 77 0.0 0.0 0.02 0.11 0.11 87 1008.4
20161206031532 48 77 0.0 0.0 0.02 0.10 0.10 87 1009.4
20161206030533 48 77 0.0 0.0 0.02 0.10 0.10 87 1009.6
20161206025532 48 77 0.0 0.0 0.01 0.09 0.09 87 1010.0
20161206024533 48 77 0.0 0.0 0.01 0.09 0.09 87 1010.1
20161206022533 48 77 0.0 0.0 0.02 0.09 0.09 87 1010.2
20161206021533 48 77 0.0 0.0 0.01 0.08 0.08 86 1010.3
20161206011533 48 77 0.0 0.0 0.02 0.07 0.07 84 1010.7
20161206010533 48 77 0.0 0.0 0.02 0.07 0.07 84 1010.7
20161206002533 49 77 0.0 0.0 0.00 0.06 0.05 84 1010.3
20161206001533 49 77 0.0 0.0 0.00 0.06 0.05 84 1010.3
20161205235533 49 77 0.0 0.0 0.00 0.06 0.05 84 1010.6
20161205234534 49 77 0.0 0.0 0.00 0.06 0.05 84 1010.7
20161205233533 49 77 0.0 0.0 0.01 0.06 0.05 84 1010.7
20161205231534 49 77 0.0 0.0 0.01 0.06 0.05 83 1010.7
20161205230534 49 77 0.0 0.0 0.01 0.06 0.05 83 1010.8
20161205215533 51 77 0.0 0.0 0.00 0.05 0.04 81 1011.9
20161205205534 52 80 5.0 6.0 0.00 0.05 0.04 80 1012.0
20161205201534 52 61 5.0 6.0 0.00 0.06 0.04 81 1012.3